Location: Winthrop
(48.4780°N, 120.1850°W)
Time: 05:03:26
(UTC-08:00)

Vanguard 1 Rocket - Pass Details

Date: 04 December 2023
Orbit: 654 x 4218 km, 34.3° (Epoch: 24 February)

Event Time Altitude Azimuth Distance (km) Brightness Sun altitude
Rises 04:39:23 0° 225° (SW) 8,325 11.9 -28.1°
Reaches altitude 10° 04:46:18 10° 218° (SW) 7,012 11.6 -27.0°
Maximum altitude 05:04:24 35° 163° (SSE) 3,877 10.7 -24.0°
Drops below altitude 10° 05:15:23 10° 103° (ESE) 4,308 12.0 -22.2°
Sets 05:18:25 0° 95° (E) 4,909 12.7 -21.7°
